OZ1IEP-5 Weather Reports


time (UTC)temp
C
wind
direction
speed
KPH
gust
KPH
rain 1hr
cm
rain 24hr
cm
rain mn
cm
humidity
%
barometer
mb
20260508091005 15 136 11.3 24.1 0.00 0.00 0.00 57 1021.5
20260508090008 14 136 11.3 27.4 0.00 0.00 0.00 57 1021.5
20260508085005 14 114 9.7 19.3 0.00 0.00 0.00 58 1021.5
20260508084005 14 121 6.4 20.9 0.00 0.00 0.00 60 1021.5
20260508083008 13 149 8.0 16.1 0.00 0.00 0.00 63 1021.4
20260508082005 13 133 3.2 19.3 0.00 0.00 0.00 64 1021.3
20260508081005 12 125 8.0 19.3 0.00 0.00 0.00 64 1021.3
20260508080008 12 75 0.0 11.3 0.00 0.00 0.00 69 1021.3
20260508075006 12 123 6.4 20.9 0.00 0.00 0.00 68 1021.2
20260508074005 12 124 4.8 14.5 0.00 0.00 0.00 71 1021.0
20260508073009 11 126 3.2 14.5 0.00 0.00 0.00 74 1021.0
20260508072006 11 111 3.2 14.5 0.00 0.00 0.00 75 1020.9
20260508071006 11 135 0.0 4.8 0.00 0.00 0.00 76 1020.9
20260508070008 10 102 1.6 4.8 0.00 0.00 0.00 77 1020.8
20260508065006 10 67 0.0 3.2 0.00 0.00 0.00 79 1020.7
20260508064005 10 73 0.0 1.6 0.00 0.00 0.00 81 1020.5
20260508063008 10 84 0.0 8.0 0.00 0.00 0.00 83 1020.4
20260508062005 9 63 0.0 3.2 0.00 0.00 0.00 85 1020.4
20260508061006 8 63 1.6 4.8 0.00 0.00 0.00 88 1020.2
20260508060008 8 41 0.0 0.0 0.00 0.00 0.00 90 1020.2
20260508055006 8 34 0.0 0.0 0.00 0.00 0.00 91 1020.2
20260508054005 8 34 0.0 0.0 0.00 0.00 0.00 91 1020.0
20260508053008 7 34 0.0 0.0 0.00 0.00 0.00 91 1020.0
20260508052006 7 34 0.0 0.0 0.00 0.00 0.00 91 1020.0
20260508051006 7 34 0.0 0.0 0.00 0.00 0.00 91 1020.0
20260508050008 7 34 0.0 0.0 0.00 0.00 0.00 91 1020.0
20260508045006 7 34 0.0 0.0 0.00 0.00 0.00 92 1019.9
20260508044006 6 34 0.0 0.0 0.00 0.00 0.00 92 1019.9
20260508043008 6 34 0.0 0.0 0.00 0.00 0.00 91 1019.9
20260508042006 5 34 0.0 0.0 0.00 0.00 0.00 91 1019.9
20260508041005 5 34 0.0 0.0 0.00 0.00 0.00 91 1019.8
20260508040015 5 34 0.0 0.0 0.00 0.00 0.00 91 1019.7
20260508035006 5 34 0.0 0.0 0.00 0.00 0.00 91 1019.6
20260508034007 5 34 0.0 0.0 0.00 0.00 0.00 90 1019.5
20260508033009 5 34 0.0 0.0 0.00 0.00 0.00 90 1019.5
20260508032007 5 34 0.0 0.0 0.00 0.00 0.00 90 1019.5
20260508031007 5 34 0.0 0.0 0.00 0.00 0.00 90 1019.4
20260508030007 5 34 0.0 0.0 0.00 0.00 0.00 90 1019.4
20260508025005 5 34 0.0 0.0 0.00 0.00 0.00 90 1019.4
20260508024005 5 34 0.0 0.0 0.00 0.00 0.00 90 1019.3
20260508023007 5 34 0.0 0.0 0.00 0.00 0.00 90 1019.3
20260508022006 5 34 0.0 0.0 0.00 0.00 0.00 89 1019.3
20260508021005 5 34 0.0 0.0 0.00 0.00 0.00 89 1019.3
20260508020008 5 34 0.0 0.0 0.00 0.00 0.00 89 1019.3
20260508015005 5 34 0.0 0.0 0.00 0.00 0.00 88 1019.3
20260508014006 5 34 0.0 0.0 0.00 0.00 0.00 88 1019.2
20260508013008 5 34 0.0 0.0 0.00 0.00 0.00 88 1019.1
20260508012006 5 34 0.0 0.0 0.00 0.00 0.00 87 1019.0
20260508011005 5 34 0.0 0.0 0.00 0.00 0.00 87 1019.1
20260508010007 5 34 0.0 0.0 0.00 0.00 0.00 88 1019.0
20260508005005 5 34 0.0 0.0 0.00 0.00 0.00 87 1018.9
20260508004006 5 34 0.0 0.0 0.00 0.00 0.00 87 1018.9
20260508003008 5 34 0.0 0.0 0.00 0.00 0.00 87 1018.9
20260508002005 5 34 0.0 0.0 0.00 0.00 0.00 87 1018.9
20260508001005 5 34 0.0 0.0 0.00 0.00 0.00 87 1018.9
20260508000008 5 34 0.0 0.0 0.00 0.00 0.00 86 1018.9
20260507235005 5 33 0.0 0.0 0.00 0.00 0.00 85 1018.8
20260507234005 6 33 0.0 0.0 0.00 0.00 0.00 85 1018.8
20260507233008 6 32 0.0 0.0 0.00 0.00 0.00 85 1018.8
20260507232005 6 32 0.0 0.0 0.00 0.00 0.00 84 1018.8
20260507231006 6 32 0.0 0.0 0.00 0.00 0.00 84 1018.7
20260507230008 6 32 0.0 0.0 0.00 0.00 0.00 83 1018.6
20260507225007 6 32 0.0 0.0 0.00 0.00 0.00 82 1018.6
20260507224005 6 32 0.0 0.0 0.00 0.00 0.00 82 1018.4
20260507223008 6 32 0.0 0.0 0.00 0.00 0.00 83 1018.3
20260507222006 6 32 0.0 0.0 0.00 0.00 0.00 83 1018.3
20260507221005 6 32 0.0 0.0 0.00 0.00 0.00 83 1018.3
20260507220008 6 32 0.0 0.0 0.00 0.00 0.00 82 1018.3
20260507215005 6 32 0.0 0.0 0.00 0.00 0.00 82 1018.3
20260507214006 7 32 0.0 0.0 0.00 0.00 0.00 83 1018.3
20260507213008 7 32 0.0 0.0 0.00 0.00 0.00 83 1018.3
20260507212006 7 32 0.0 0.0 0.00 0.00 0.00 84 1018.2
20260507211006 7 32 0.0 0.0 0.00 0.00 0.00 84 1018.2
20260507210008 7 31 0.0 1.6 0.00 0.00 0.00 83 1018.1
20260507205005 7 30 0.0 1.6 0.00 0.00 0.00 82 1017.9
20260507204005 7 23 0.0 1.6 0.00 0.00 0.00 81 1017.8
20260507203008 7 20 0.0 0.0 0.00 0.00 0.00 81 1017.7
20260507202006 7 298 0.0 0.0 0.00 0.00 0.00 79 1017.6
20260507201005 8 298 0.0 0.0 0.00 0.00 0.00 78 1017.5
20260507200008 8 298 0.0 0.0 0.00 0.00 0.00 77 1017.4
20260507195006 8 298 0.0 0.0 0.00 0.00 0.00 76 1017.3
20260507194006 8 298 0.0 0.0 0.00 0.00 0.00 76 1017.2
20260507193009 8 298 0.0 0.0 0.00 0.00 0.00 75 1017.2
20260507192005 9 298 0.0 0.0 0.00 0.00 0.00 74 1017.0
20260507191006 9 298 0.0 0.0 0.00 0.00 0.00 72 1016.9
20260507190016 9 298 0.0 0.0 0.00 0.00 0.00 70 1016.8
20260507185005 10 298 0.0 0.0 0.00 0.00 0.00 68 1016.7
20260507184006 10 298 0.0 1.6 0.00 0.00 0.00 67 1016.7
20260507183007 11 303 0.0 1.6 0.00 0.00 0.00 66 1016.7
20260507182005 11 309 0.0 3.2 0.00 0.00 0.00 64 1016.7
20260507181005 11 320 0.0 3.2 0.00 0.00 0.00 63 1016.7
20260507180007 11 323 0.0 1.6 0.00 0.00 0.00 63 1016.6
20260507175005 11 353 0.0 3.2 0.00 0.00 0.00 62 1016.6
20260507174005 12 344 1.6 4.8 0.00 0.00 0.00 62 1016.4
20260507173008 12 341 1.6 4.8 0.00 0.00 0.00 61 1016.3
20260507172005 12 354 3.2 8.0 0.00 0.00 0.00 62 1016.2
20260507171006 12 346 3.2 9.7 0.00 0.00 0.00 61 1016.2
20260507170007 12 9 3.2 11.3 0.00 0.00 0.00 60 1016.2
20260507165006 12 333 4.8 9.7 0.00 0.00 0.00 60 1016.2
20260507164006 12 359 3.2 8.0 0.00 0.00 0.00 59 1016.1
20260507163007 12 350 4.8 9.7 0.00 0.00 0.00 62 1016.1
20260507162005 12 353 6.4 11.3 0.00 0.00 0.00 62 1016.1
20260507161006 12 332 3.2 19.3 0.00 0.00 0.00 61 1016.1
20260507160008 12 4 4.8 14.5 0.00 0.00 0.00 62 1016.1
20260507155005 12 0 6.4 14.5 0.00 0.00 0.00 62 1016.0
20260507154009 13 351 6.4 14.5 0.00 0.00 0.00 60 1016.0
20260507153008 13 338 6.4 19.3 0.00 0.00 0.00 61 1016.0
20260507152005 13 340 8.0 19.3 0.00 0.00 0.00 59 1015.9
20260507151005 13 312 1.6 19.3 0.00 0.00 0.00 59 1015.7
20260507150008 13 296 3.2 20.9 0.00 0.00 0.00 59 1015.7
20260507145005 13 299 1.6 19.3 0.00 0.00 0.00 55 1015.7
20260507144005 13 308 3.2 19.3 0.00 0.00 0.00 50 1015.7
20260507143009 13 298 4.8 20.9 0.00 0.00 0.00 48 1015.7
20260507142006 13 291 3.2 19.3 0.00 0.00 0.00 49 1015.7
20260507141007 13 307 6.4 19.3 0.00 0.00 0.00 48 1015.7
20260507140009 13 302 3.2 19.3 0.00 0.00 0.00 49 1015.7
20260507135006 13 295 9.7 22.5 0.00 0.00 0.00 45 1015.7
20260507134006 13 290 3.2 14.5 0.00 0.00 0.00 48 1015.7
20260507133008 13 301 11.3 19.3 0.00 0.00 0.00 47 1015.7
20260507132006 13 292 4.8 22.5 0.00 0.00 0.00 53 1015.7
20260507131006 13 310 11.3 20.9 0.00 0.00 0.00 50 1015.7
20260507130008 13 319 9.7 19.3 0.00 0.00 0.00 49 1015.7
20260507125006 13 297 1.6 14.5 0.00 0.00 0.00 53 1015.7
20260507124006 13 284 8.0 20.9 0.00 0.00 0.00 50 1015.6
20260507123009 13 315 4.8 22.5 0.00 0.00 0.00 55 1015.6
20260507122006 12 306 16.1 22.5 0.00 0.00 0.00 57 1015.6
20260507121006 12 302 16.1 25.7 0.00 0.00 0.00 50 1015.5
20260507120008 13 305 14.5 22.5 0.00 0.00 0.00 57 1015.5
20260507115006 12 294 8.0 20.9 0.00 0.00 0.00 56 1015.3
20260507114006 12 304 12.9 22.5 0.00 0.00 0.00 56 1015.3
20260507113008 12 301 11.3 22.5 0.00 0.00 0.00 57 1015.2
20260507112005 12 295 14.5 22.5 0.00 0.00 0.00 54 1015.3
20260507111006 12 296 3.2 24.1 0.00 0.00 0.00 59 1015.2
20260507110008 12 302 12.9 22.5 0.00 0.00 0.00 57 1015.2
20260507105005 12 296 12.9 22.5 0.00 0.00 0.00 61 1015.2
20260507104005 12 297 14.5 20.9 0.00 0.00 0.00 65 1015.2
20260507103008 12 265 1.6 19.3 0.00 0.00 0.00 70 1015.1
20260507102007 12 302 3.2 16.1 0.00 0.00 0.00 74 1015.1
20260507101006 12 301 8.0 19.3 0.00 0.00 0.00 74 1015.1
20260507100008 12 274 3.2 19.3 0.00 0.00 0.00 75 1015.1
20260507095005 12 290 4.8 19.3 0.00 0.00 0.00 76 1015.1
20260507094006 12 300 4.8 20.9 0.00 0.00 0.00 74 1015.0
20260507093008 12 316 4.8 19.3 0.00 0.00 0.00 73 1014.8
20260507092006 12 287 1.6 16.1 0.00 0.00 0.00 71 1014.7